Location: Bishopstone
(51.0167°N, 1.9000°W)
Time: 15:34:33
(UTC+00:00)

Cosmos 1437 Rocket - Pass Details

Date: 16 September 2019
Orbit: 506 x 563 km, 81.2° (Epoch: 16 October)

Event Time Altitude Azimuth Distance (km) Brightness Sun altitude
Rises 19:34:50 0° 358° (N) 2,660 6.6 -12.3°
Reaches altitude 10° 19:37:27 10° 15° (NNE) 1,757 5.5 -12.6°
Maximum altitude 19:40:21 20° 65° (ENE) 1,230 4.2 -13.1°
Enters shadow 19:41:11 19° 83° (E) 1,278 4.2 -13.2°
